Regional Weather Roundup
Issued by NWS

Home | Current Version | Previous Version | Graphics & Text | Print | Product List | Glossary On
Versions: 1 2 3 4 5 6 7 8 9 10 11 12 13 14 15 16 17 18 19 20 21 22 23 24 25 26 27 28 29 30 31 32 33 34 35 36 37 38 39 40 41 42 43 44 45 46 47 48 49 50
000
ASUS43 KIND 041509
RWRIN

WEATHER ROUNDUP FOR INDIANA
NATIONAL WEATHER SERVICE INDIANAPOLIS IN
1000 AM EST WED MAR 04 2015

NOTE: "FAIR" INDICATES FEW OR NO CLOUDS BELOW 12,000 FEET WITH NO
SIGNIFICANT WEATHER AND/OR OBSTRUCTIONS TO VISIBILITY.

* - STATION DOES NOT REPORT WEATHER SUCH AS PRECIPITATION OR FOG.

+ - STATION NOT QUALITY CONTROLLED BY THE NATIONAL WEATHER SERVICE.
    USE DATA WITH CAUTION...ESPECIALLY DEWPOINT AND RELATIVE
    HUMIDITY OBSERVATIONS.

INZ001>003-010>013-019-020-041600-
NORTHWEST INDIANA

CITY           SKY/WX    TMP DP  RH WIND       PRES   REMARKS
GARY /AIRPORT/ PTSUNNY   25  12  58 W20       30.07R WCI  11
KNOX *+          N/A     28  14  54 NW14      30.03R WCI  17
LA PORTE +     CLOUDY    27  19  74 NW15G22   30.04R WCI  15
MICHIGAN CITY+ CLOUDY    27  14  59 N10G16    30.05R WCI  17
MONTICELLO +   CLOUDY    25  21  86 W9        30.04R WCI  15
RENSSELAER +   MOSUNNY   21  18  86 W12G17    30.08R WCI   9
VALPARAISO     CLOUDY    24  17  74 NW13      30.06R WCI  12

$$

LMZ046-743>745-041600-
SOUTHERN LAKE MICHIGAN

STATION/POSITION TIME  TEMP WIND        PRES
                       AIR  DIR/SP/G
                 (UTC) (F)  (DEG/KT/KT) (MB)
MICHIGAN CITY    1500   23  300/ 13/ 16   N/A

$$

INZ004-005-014>016-021>024-041600-
NORTH CENTRAL INDIANA

CITY           SKY/WX    TMP DP  RH WIND       PRES   REMARKS
ELKHART        CLOUDY    28  18  64 NW9       30.00R WCI  20
GOSHEN         CLOUDY    28  22  78 N14       29.99R WCI  17
LOGANSPORT +   CLOUDY    30  25  80 W10       30.03R WCI  21
PERU/GRISSOM   PTSUNNY   32  27  80 NW12      30.00R WCI  23
ROCHESTER +    PTSUNNY   32  28  86 NW10      30.01R WCI  24
SOUTH BEND     CLOUDY    27  19  72 NW16      30.02R WCI  15
WARSAW +       PTSUNNY   30  25  80 NW13      29.99S WCI  20

$$

INZ006>009-017-018-025>027-041600-
NORTHEAST INDIANA

CITY           SKY/WX    TMP DP  RH WIND       PRES   REMARKS
ANGOLA *+      CLOUDY    30  21  69 NW9       29.94F WCI  22
AUBURN +       PTSUNNY   32  25  74 W10       29.97S WCI  24
FORT WAYNE     CLOUDY    32  25  75 NW9       29.99R WCI  24
HUNTINGTON +   CLOUDY    32  21  65 NW9       29.98F WCI  24

$$

INZ028-029-035-036-043>045-051>053-041600-
WEST CENTRAL INDIANA

CITY           SKY/WX    TMP DP  RH WIND       PRES   REMARKS
CRAWFORDSVL +  CLOUDY    23  16  75 NW12      30.05R WCI  12
GREENCASTLE +  CLOUDY    28  23  80 NW7       30.04R WCI  21
LAFAYETTE      PTSUNNY   22  18  85 NW14      30.06R WCI   9
TERRE HAUTE    CLOUDY    25  19  78 NW16      30.08R WCI  12

$$

INZ030>032-037>040-046>048-054>057-064-065-041600-
CENTRAL INDIANA

CITY           SKY/WX    TMP DP  RH WIND       PRES   REMARKS
ANDERSON       MOSUNNY   30  27  86 NW12      30.00R HAZE    WCI  21
CP ATTERBURY + CLOUDY    34  28  80 NW10      30.01F WCI  26
COLUMBUS       PTSUNNY   32  28  86 N9        30.03  WCI  24
FRANKFORT +    PTSUNNY   28  24  86 W13       30.04R WCI  17
GREENWOOD *+   CLOUDY    32  25  74 NW8       30.00S WCI  25
INDIANAPOLIS   CLOUDY    32  26  78 NW12      30.01R FOG     WCI  23
-EAGLE CREEK   CLOUDY    30  26  85 NW13      30.02R WCI  20
KOKOMO *+      MOSUNNY   30  27  86 NW12      30.01R WCI  21
MARION +       PTSUNNY   29  26  88 W5        30.00R FOG     WCI  24
MT COMFORT *+  CLOUDY    32  23  69 N8        30.00F WCI  25
SHELBYVILLE    CLOUDY    35  27  72 N9        30.00R WCI  28
ZIONSVILLE +   CLOUDY    32  26  78 NW9       30.02R HAZE    WCI  24

$$

INZ033-034-041-042-049-050-058-059-041600-
EAST CENTRAL INDIANA

CITY           SKY/WX    TMP DP  RH WIND       PRES   REMARKS
MUNCIE         CLOUDY    31  27  85 NW7       29.99R FOG     WCI  24

$$

INZ060-061-067>069-081>083-085>088-041600-
SOUTHWEST INDIANA

CITY           SKY/WX    TMP DP  RH WIND       PRES   REMARKS
EVANSVILLE     LGT RAIN  36  31  82 N10       30.05R FOG
HUNTINGBURG *+ CLOUDY    34  30  86 N8G17     30.02S WCI  27
WASHINGTON +   CLOUDY    33  29  83 N12       30.04S WCI  25

$$

INZ062-063-066-070>080-084-089>092-041600-
SOUTH CENTRAL AND SOUTHEAST INDIANA

CITY           SKY/WX    TMP DP  RH WIND       PRES   REMARKS
BEDFORD +      CLOUDY    32  32 100 N8        30.02  WCI  25
BLOOMINGTON    CLOUDY    33  28  81 N10       30.02R HAZE    WCI  25
NORTH VERNON + CLOUDY    34  34 100 N8        30.00S FOG     WCI  27
SEYMOUR +      CLOUDY    36  34  93 N7        30.01S

$$




USA.gov is the U.S. government's official web portal to all federal, state and local government web resources and services.